Time,TemperatureF,DewpointF,PressureIn,WindDirection,WindDirectionDegrees,WindSpeedMPH,WindSpeedGustMPH,Humidity,HourlyPrecipIn,Conditions,Clouds,dailyrainin,SoftwareType,DateUTC
2013-01-03 00:03:00,5.0,-7.0,30.12,NNW,347,2.0,7.0,58,0.00,,,0.00,,2013-01-03 05:03:00,
2013-01-03 00:12:00,5.0,-7.0,30.12,NNW,347,2.0,7.0,58,0.00,,,0.00,,2013-01-03 05:12:00,
2013-01-03 00:23:00,5.0,-6.0,30.12,West,276,3.0,6.0,59,0.00,,,0.00,,2013-01-03 05:23:00,
2013-01-03 00:33:00,5.0,-6.0,30.11,NNW,340,2.0,6.0,59,0.00,,,0.00,,2013-01-03 05:33:00,
2013-01-03 00:42:00,5.0,-6.0,30.11,NNW,340,2.0,6.0,59,0.00,,,0.00,,2013-01-03 05:42:00,
2013-01-03 00:53:00,4.0,-7.0,30.13,NW,311,2.0,7.0,60,0.00,,,0.00,,2013-01-03 05:53:00,
2013-01-03 01:02:00,4.0,-6.0,30.13,ESE,117,1.0,4.0,61,0.00,,,0.00,,2013-01-03 06:02:00,
2013-01-03 01:12:00,4.0,-6.0,30.13,ESE,117,1.0,4.0,61,0.00,,,0.00,,2013-01-03 06:12:00,
2013-01-03 01:22:00,4.0,-6.0,30.14,WNW,291,1.0,4.0,62,0.00,,,0.00,,2013-01-03 06:22:00,
2013-01-03 01:33:00,4.0,-6.0,30.14,NW,322,2.0,6.0,62,0.00,,,0.00,,2013-01-03 06:33:00,
2013-01-03 01:42:00,4.0,-6.0,30.14,NW,322,2.0,6.0,62,0.00,,,0.00,,2013-01-03 06:42:00,
2013-01-03 01:53:00,4.0,-6.0,30.15,WNW,290,3.0,5.0,62,0.00,,,0.00,,2013-01-03 06:53:00,
2013-01-03 02:02:00,4.0,-6.0,30.15,WNW,295,3.0,5.0,62,0.00,,,0.00,,2013-01-03 07:02:00,
2013-01-03 02:12:00,4.0,-6.0,30.15,WNW,295,3.0,5.0,62,0.00,,,0.00,,2013-01-03 07:12:00,
2013-01-03 02:22:00,3.0,-7.0,30.14,WNW,301,1.0,4.0,63,0.00,,,0.00,,2013-01-03 07:22:00,
2013-01-03 02:33:00,3.0,-7.0,30.14,WNW,283,2.0,5.0,63,0.00,,,0.00,,2013-01-03 07:33:00,
2013-01-03 02:42:00,3.0,-7.0,30.14,WNW,283,2.0,5.0,63,0.00,,,0.00,,2013-01-03 07:42:00,
2013-01-03 02:53:00,3.0,-6.0,30.14,West,268,2.0,7.0,64,0.00,,,0.00,,2013-01-03 07:53:00,
2013-01-03 03:02:00,3.0,-6.0,30.14,West,276,2.0,5.0,64,0.00,,,0.00,,2013-01-03 08:02:00,
2013-01-03 03:12:00,3.0,-6.0,30.14,West,276,2.0,5.0,64,0.00,,,0.00,,2013-01-03 08:12:00,
2013-01-03 03:22:00,3.0,-7.0,30.14,West,276,1.0,7.0,63,0.00,,,0.00,,2013-01-03 08:22:00,
2013-01-03 03:33:00,3.0,-7.0,30.14,NNW,336,1.0,4.0,63,0.00,,,0.00,,2013-01-03 08:33:00,
2013-01-03 03:43:00,3.0,-7.0,30.14,NNW,336,1.0,4.0,63,0.00,,,0.00,,2013-01-03 08:43:00,
2013-01-03 03:53:00,2.0,-7.0,30.14,NW,304,1.0,3.0,64,0.00,,,0.00,,2013-01-03 08:53:00,
2013-01-03 04:03:00,2.0,-7.0,30.14,WNW,287,1.0,3.0,65,0.00,,,0.00,,2013-01-03 09:03:00,
2013-01-03 04:12:00,2.0,-7.0,30.14,WNW,287,1.0,3.0,65,0.00,,,0.00,,2013-01-03 09:12:00,
2013-01-03 04:22:00,2.0,-7.0,30.13,WNW,293,1.0,2.0,65,0.00,,,0.00,,2013-01-03 09:22:00,
2013-01-03 04:33:00,2.0,-7.0,30.13,West,277,2.0,4.0,65,0.00,,,0.00,,2013-01-03 09:33:00,
2013-01-03 04:43:00,2.0,-7.0,30.13,West,277,2.0,4.0,65,0.00,,,0.00,,2013-01-03 09:43:00,
2013-01-03 04:53:00,2.0,-7.0,30.12,WNW,300,1.0,2.0,66,0.00,,,0.00,,2013-01-03 09:53:00,
2013-01-03 05:02:00,2.0,-7.0,30.12,West,273,0.0,3.0,66,0.00,,,0.00,,2013-01-03 10:02:00,
2013-01-03 05:12:00,2.0,-7.0,30.12,West,273,0.0,3.0,66,0.00,,,0.00,,2013-01-03 10:12:00,
2013-01-03 05:23:00,1.0,-7.0,30.13,WNW,297,0.0,2.0,67,0.00,,,0.00,,2013-01-03 10:23:00,
2013-01-03 05:33:00,1.0,-7.0,30.12,WNW,296,0.0,1.0,67,0.00,,,0.00,,2013-01-03 10:33:00,
2013-01-03 05:43:00,1.0,-7.0,30.12,WNW,296,0.0,1.0,67,0.00,,,0.00,,2013-01-03 10:43:00,
2013-01-03 05:53:00,0.0,-8.0,30.13,WNW,297,0.0,1.0,69,0.00,,,0.00,,2013-01-03 10:53:00,
2013-01-03 06:02:00,0.0,-7.0,30.13,WNW,303,0.0,1.0,70,0.00,,,0.00,,2013-01-03 11:02:00,
2013-01-03 06:12:00,0.0,-7.0,30.13,WNW,303,0.0,1.0,70,0.00,,,0.00,,2013-01-03 11:12:00,
2013-01-03 06:23:00,0.0,-7.0,30.13,NW,304,0.0,0.0,70,0.00,,,0.00,,2013-01-03 11:23:00,
2013-01-03 06:33:00,0.0,-7.0,30.13,NW,304,0.0,0.0,72,0.00,,,0.00,,2013-01-03 11:33:00,
2013-01-03 06:43:00,0.0,-7.0,30.13,NW,304,0.0,0.0,72,0.00,,,0.00,,2013-01-03 11:43:00,
2013-01-03 06:53:00,-1.0,-7.0,30.14,NW,304,0.0,0.0,75,0.00,,,0.00,,2013-01-03 11:53:00,
2013-01-03 07:03:00,-2.0,-8.0,30.13,WNW,303,0.0,0.0,76,0.00,,,0.00,,2013-01-03 12:03:00,
2013-01-03 07:12:00,-2.0,-8.0,30.13,WNW,303,0.0,0.0,76,0.00,,,0.00,,2013-01-03 12:12:00,
2013-01-03 07:22:00,-1.0,-7.0,30.13,NW,305,0.0,0.0,76,0.00,,,0.00,,2013-01-03 12:22:00,
2013-01-03 07:33:00,-1.0,-7.0,30.13,East,100,0.0,0.0,75,0.00,,,0.00,,2013-01-03 12:33:00,
2013-01-03 07:42:00,-1.0,-7.0,30.13,East,100,0.0,0.0,75,0.00,,,0.00,,2013-01-03 12:42:00,
2013-01-03 07:53:00,-2.0,-8.0,30.14,East,100,0.0,0.0,75,0.00,,,0.00,,2013-01-03 12:53:00,
2013-01-03 08:02:00,-2.0,-7.0,30.14,WNW,283,0.0,1.0,77,0.00,,,0.00,,2013-01-03 13:02:00,
2013-01-03 08:13:00,-2.0,-7.0,30.14,WNW,283,0.0,1.0,77,0.00,,,0.00,,2013-01-03 13:13:00,
2013-01-03 08:22:00,0.0,-6.0,30.14,WNW,282,0.0,0.0,74,0.00,,,0.00,,2013-01-03 13:22:00,
2013-01-03 08:33:00,1.0,-6.0,30.14,WNW,283,0.0,0.0,73,0.00,,,0.00,,2013-01-03 13:33:00,
2013-01-03 08:42:00,1.0,-6.0,30.14,WNW,283,0.0,0.0,73,0.00,,,0.00,,2013-01-03 13:42:00,
2013-01-03 08:53:00,2.0,-5.0,30.14,WSW,253,0.0,0.0,71,0.00,,,0.00,,2013-01-03 13:53:00,
2013-01-03 09:03:00,3.0,-5.0,30.14,WNW,293,1.0,2.0,69,0.00,,,0.00,,2013-01-03 14:03:00,
2013-01-03 09:12:00,3.0,-5.0,30.14,WNW,293,1.0,2.0,69,0.00,,,0.00,,2013-01-03 14:12:00,
2013-01-03 09:23:00,5.0,-4.0,30.13,NNW,330,1.0,2.0,65,0.00,,,0.00,,2013-01-03 14:23:00,
2013-01-03 09:33:00,6.0,-4.0,30.14,SW,236,1.0,3.0,64,0.00,,,0.00,,2013-01-03 14:33:00,
2013-01-03 09:43:00,6.0,-4.0,30.14,SW,236,1.0,3.0,64,0.00,,,0.00,,2013-01-03 14:43:00,
2013-01-03 09:53:00,7.0,-3.0,30.14,West,278,1.0,4.0,63,0.00,,,0.00,,2013-01-03 14:53:00,
2013-01-03 10:03:00,8.0,-3.0,30.14,WNW,287,1.0,5.0,61,0.00,,,0.00,,2013-01-03 15:03:00,
2013-01-03 10:12:00,8.0,-3.0,30.14,WNW,287,1.0,5.0,61,0.00,,,0.00,,2013-01-03 15:12:00,
2013-01-03 10:23:00,10.0,-1.0,30.14,West,280,1.0,3.0,59,0.00,,,0.00,,2013-01-03 15:23:00,
2013-01-03 10:33:00,11.0,-1.0,30.13,WNW,288,1.0,4.0,57,0.00,,,0.00,,2013-01-03 15:33:00,
2013-01-03 10:43:00,11.0,-1.0,30.13,WNW,288,1.0,4.0,57,0.00,,,0.00,,2013-01-03 15:43:00,
2013-01-03 10:53:00,12.0,-1.0,30.13,WNW,294,1.0,5.0,55,0.00,,,0.00,,2013-01-03 15:53:00,
2013-01-03 11:03:00,13.0,0.0,30.12,WNW,293,2.0,5.0,54,0.00,,,0.00,,2013-01-03 16:03:00,
2013-01-03 11:12:00,13.0,0.0,30.12,WNW,293,2.0,5.0,54,0.00,,,0.00,,2013-01-03 16:12:00,
2013-01-03 11:23:00,14.0,0.0,30.11,WNW,301,1.0,5.0,53,0.00,,,0.00,,2013-01-03 16:23:00,
2013-01-03 11:33:00,15.0,-1.0,30.11,West,274,2.0,5.0,49,0.00,,,0.00,,2013-01-03 16:33:00,
2013-01-03 11:43:00,15.0,-1.0,30.11,West,274,2.0,5.0,49,0.00,,,0.00,,2013-01-03 16:43:00,
2013-01-03 11:53:00,16.0,0.0,30.11,NW,326,2.0,6.0,48,0.00,,,0.00,,2013-01-03 16:53:00,
2013-01-03 12:03:00,17.0,0.0,30.10,WNW,297,2.0,5.0,47,0.00,,,0.00,,2013-01-03 17:03:00,
2013-01-03 12:13:00,17.0,0.0,30.10,WNW,297,2.0,5.0,47,0.00,,,0.00,,2013-01-03 17:13:00,
2013-01-03 12:23:00,19.0,1.0,30.09,ESE,117,1.0,6.0,44,0.00,,,0.00,,2013-01-03 17:23:00,
2013-01-03 12:33:00,20.0,1.0,30.08,North,358,3.0,6.0,42,0.00,,,0.00,,2013-01-03 17:33:00,
2013-01-03 12:43:00,20.0,1.0,30.08,North,358,3.0,6.0,42,0.00,,,0.00,,2013-01-03 17:43:00,
2013-01-03 12:53:00,21.0,1.0,30.08,NNW,329,2.0,5.0,40,0.00,,,0.00,,2013-01-03 17:53:00,
2013-01-03 13:03:00,21.0,-1.0,30.08,North,359,3.0,11.0,38,0.00,,,0.00,,2013-01-03 18:03:00,
2013-01-03 13:13:00,21.0,-1.0,30.08,North,359,3.0,11.0,38,0.00,,,0.00,,2013-01-03 18:13:00,
2013-01-03 13:22:00,21.0,0.0,30.06,NW,321,1.0,8.0,39,0.00,,,0.00,,2013-01-03 18:22:00,
2013-01-03 13:33:00,21.0,-1.0,30.06,WNW,289,1.0,7.0,38,0.00,,,0.00,,2013-01-03 18:33:00,
2013-01-03 13:43:00,21.0,-1.0,30.06,WNW,289,1.0,7.0,38,0.00,,,0.00,,2013-01-03 18:43:00,
2013-01-03 13:53:00,23.0,-1.0,30.05,NW,317,2.0,7.0,35,0.00,,,0.00,,2013-01-03 18:53:00,
2013-01-03 14:03:00,23.0,-1.0,30.05,WNW,288,3.0,10.0,34,0.00,,,0.00,,2013-01-03 19:03:00,
2013-01-03 14:12:00,23.0,-1.0,30.05,WNW,288,3.0,10.0,34,0.00,,,0.00,,2013-01-03 19:12:00,
2013-01-03 14:56:00,22.0,-2.0,30.05,NNW,335,2.0,7.0,34,0.00,,,0.00,,2013-01-03 19:56:00,
2013-01-03 15:03:00,21.0,-4.0,30.05,WNW,301,2.0,5.0,33,0.00,,,0.00,,2013-01-03 20:03:00,
2013-01-03 15:13:00,21.0,-4.0,30.05,WNW,301,2.0,5.0,33,0.00,,,0.00,,2013-01-03 20:13:00,
2013-01-03 15:23:00,21.0,-5.0,30.05,NNW,343,1.0,4.0,31,0.00,,,0.00,,2013-01-03 20:23:00,
2013-01-03 15:33:00,22.0,-4.0,30.04,NW,320,2.0,6.0,31,0.00,,,0.00,,2013-01-03 20:33:00,
2013-01-03 15:42:00,22.0,-4.0,30.04,NW,320,2.0,6.0,31,0.00,,,0.00,,2013-01-03 20:42:00,
2013-01-03 15:53:00,21.0,-5.0,30.04,WNW,288,1.0,6.0,31,0.00,,,0.00,,2013-01-03 20:53:00,
2013-01-03 16:02:00,21.0,-4.0,30.04,WNW,294,2.0,5.0,32,0.00,,,0.00,,2013-01-03 21:02:00,
2013-01-03 16:13:00,21.0,-4.0,30.04,WNW,294,2.0,5.0,32,0.00,,,0.00,,2013-01-03 21:13:00,
2013-01-03 16:23:00,20.0,-3.0,30.04,West,277,1.0,4.0,36,0.00,,,0.00,,2013-01-03 21:23:00,
2013-01-03 16:37:00,20.0,-2.0,30.05,NW,323,2.0,4.0,37,0.00,,,0.00,,2013-01-03 21:37:00,
2013-01-03 16:49:00,20.0,-2.0,30.05,NW,323,2.0,4.0,37,0.00,,,0.00,,2013-01-03 21:49:00,
2013-01-03 17:03:00,18.0,0.0,30.04,WNW,297,0.0,0.0,44,0.00,,,0.00,,2013-01-03 22:03:00,
2013-01-03 17:12:00,18.0,0.0,30.04,WNW,297,0.0,0.0,44,0.00,,,0.00,,2013-01-03 22:12:00,
2013-01-03 17:22:00,17.0,0.0,30.04,WNW,297,0.0,0.0,47,0.00,,,0.00,,2013-01-03 22:22:00,
2013-01-03 17:33:00,16.0,1.0,30.04,WNW,297,0.0,0.0,51,0.00,,,0.00,,2013-01-03 22:33:00,
2013-01-03 17:43:00,16.0,1.0,30.04,WNW,297,0.0,0.0,51,0.00,,,0.00,,2013-01-03 22:43:00,
2013-01-03 17:52:00,14.0,0.0,30.05,WNW,297,0.0,0.0,52,0.00,,,0.00,,2013-01-03 22:52:00,
2013-01-03 18:03:00,14.0,2.0,30.05,WNW,298,0.0,0.0,57,0.00,,,0.00,,2013-01-03 23:03:00,
2013-01-03 18:12:00,14.0,2.0,30.05,WNW,298,0.0,0.0,57,0.00,,,0.00,,2013-01-03 23:12:00,
2013-01-03 18:23:00,12.0,1.0,30.05,WNW,298,0.0,0.0,60,0.00,,,0.00,,2013-01-03 23:23:00,
2013-01-03 18:33:00,11.0,2.0,30.06,WNW,298,0.0,0.0,66,0.00,,,0.00,,2013-01-03 23:33:00,
2013-01-03 18:43:00,11.0,2.0,30.06,WNW,298,0.0,0.0,66,0.00,,,0.00,,2013-01-03 23:43:00,
2013-01-03 18:53:00,11.0,1.0,30.05,WNW,297,0.0,0.0,63,0.00,,,0.00,,2013-01-03 23:53:00,
2013-01-03 19:03:00,10.0,2.0,30.06,WNW,298,0.0,0.0,68,0.00,,,0.00,,2013-01-04 00:03:00,
2013-01-03 19:13:00,10.0,2.0,30.06,WNW,298,0.0,0.0,68,0.00,,,0.00,,2013-01-04 00:13:00,
2013-01-03 19:23:00,10.0,2.0,30.06,WNW,297,0.0,0.0,69,0.00,,,0.00,,2013-01-04 00:23:00,
2013-01-03 19:32:00,9.0,2.0,30.06,WNW,298,0.0,0.0,71,0.00,,,0.00,,2013-01-04 00:32:00,
2013-01-03 19:42:00,9.0,2.0,30.06,WNW,298,0.0,0.0,71,0.00,,,0.00,,2013-01-04 00:42:00,
2013-01-03 19:53:00,10.0,3.0,30.06,WNW,298,0.0,0.0,71,0.00,,,0.00,,2013-01-04 00:53:00,
2013-01-03 20:02:00,10.0,3.0,30.06,WNW,298,0.0,0.0,71,0.00,,,0.00,,2013-01-04 01:02:00,
2013-01-03 20:12:00,10.0,3.0,30.06,WNW,298,0.0,0.0,71,0.00,,,0.00,,2013-01-04 01:12:00,
2013-01-03 20:22:00,11.0,4.0,30.05,WNW,297,0.0,0.0,72,0.00,,,0.00,,2013-01-04 01:22:00,
2013-01-03 20:33:00,11.0,4.0,30.05,WNW,297,0.0,0.0,74,0.00,,,0.00,,2013-01-04 01:33:00,
2013-01-03 20:42:00,11.0,4.0,30.05,WNW,297,0.0,0.0,74,0.00,,,0.00,,2013-01-04 01:42:00,
2013-01-03 20:53:00,10.0,3.0,30.05,WNW,298,0.0,0.0,74,0.00,,,0.00,,2013-01-04 01:53:00,
2013-01-03 21:02:00,10.0,3.0,30.05,WNW,297,0.0,0.0,72,0.00,,,0.00,,2013-01-04 02:02:00,
2013-01-03 21:12:00,10.0,3.0,30.05,WNW,297,0.0,0.0,72,0.00,,,0.00,,2013-01-04 02:12:00,
2013-01-03 21:22:00,10.0,4.0,30.05,WNW,297,0.0,0.0,75,0.00,,,0.00,,2013-01-04 02:22:00,
2013-01-03 21:33:00,10.0,4.0,30.05,WNW,298,0.0,0.0,77,0.00,,,0.00,,2013-01-04 02:33:00,
2013-01-03 21:42:00,10.0,4.0,30.05,WNW,298,0.0,0.0,77,0.00,,,0.00,,2013-01-04 02:42:00,
2013-01-03 21:53:00,10.0,5.0,30.05,WNW,297,0.0,0.0,78,0.00,,,0.00,,2013-01-04 02:53:00,
2013-01-03 22:03:00,11.0,6.0,30.04,WNW,298,0.0,0.0,79,0.00,,,0.00,,2013-01-04 03:03:00,
2013-01-03 22:12:00,11.0,6.0,30.04,WNW,298,0.0,0.0,79,0.00,,,0.00,,2013-01-04 03:12:00,
2013-01-03 22:22:00,11.0,6.0,30.04,WNW,297,0.0,0.0,79,0.00,,,0.00,,2013-01-04 03:22:00,
2013-01-03 22:33:00,10.0,5.0,30.04,WNW,297,0.0,0.0,80,0.00,,,0.00,,2013-01-04 03:33:00,
2013-01-03 22:43:00,10.0,5.0,30.04,WNW,297,0.0,0.0,80,0.00,,,0.00,,2013-01-04 03:43:00,
2013-01-03 22:53:00,9.0,4.0,30.04,WNW,298,0.0,0.0,80,0.00,,,0.00,,2013-01-04 03:53:00,
2013-01-03 23:02:00,8.0,4.0,30.03,WNW,297,0.0,0.0,83,0.00,,,0.00,,2013-01-04 04:02:00,
2013-01-03 23:12:00,8.0,4.0,30.03,WNW,297,0.0,0.0,83,0.00,,,0.00,,2013-01-04 04:12:00,
2013-01-03 23:22:00,8.0,4.0,30.02,WNW,297,0.0,0.0,83,0.00,,,0.00,,2013-01-04 04:22:00,
2013-01-03 23:32:00,8.0,4.0,30.02,WNW,298,0.0,0.0,83,0.00,,,0.00,,2013-01-04 04:32:00,
2013-01-03 23:42:00,8.0,4.0,30.02,WNW,298,0.0,0.0,83,0.00,,,0.00,,2013-01-04 04:42:00,
2013-01-03 23:53:00,8.0,4.0,30.01,WNW,298,0.0,0.0,84,0.00,,,0.00,,2013-01-04 04:53:00,